Regional Weather Roundup
Issued by NWS

Home | Current Version | Previous Version | Graphics & Text | Print | Product List | Glossary On
Versions: 1 2 3 4 5 6 7 8 9 10 11 12 13 14 15 16 17 18 19 20 21 22 23 24 25 26 27 28 29 30 31 32 33 34 35 36 37 38 39 40 41 42 43 44 45 46 47 48 49 50
000
ASUS43 KDMX 250006
RWRIA

WEATHER ROUNDUP FOR IOWA
NATIONAL WEATHER SERVICE DES MOINES IA
700 PM CDT MON APR 24 2017

NOTE: "FAIR" INDICATES FEW OR NO CLOUDS BELOW 12,000 FEET WITH NO
SIGNIFICANT WEATHER AND/OR OBSTRUCTIONS TO VISIBILITY.

* - THESE STATIONS ARE NOT NWS STATIONS...THUS NOT UNDER NWS
QUALITY CONTROL.  THEY ALSO DO NOT REPORT WEATHER SUCH
AS PRECIPITATION OR FOG.

IAZ001>003-012>014-020>022-031>034-043>046-250100-
   NORTHWEST IOWA

CITY           SKY/WX    TMP DP  RH WIND       PRES   REMARKS
CARROLL *      SUNNY     72  36  26 S24       29.54S
CHEROKEE *     CLOUDY    67  41  38 S8        29.52S
DENISON *      CLOUDY    70  39  32 S16       29.54F
LE MARS *      PTSUNNY   72  43  35 S13       29.48F
ORANGE CITY *  PTSUNNY   70  43  37 S10       29.49F
SHELDON *      PTSUNNY   66  43  42 S12       29.48F
SIOUX CITY     CLOUDY    72  43  35 SW12      29.48F
6HR MIN TEMP:  68; 6HR MAX TEMP:  75;

SPENCER        CLOUDY    69  37  30 S15       29.53S
6HR MIN TEMP:  67; 6HR MAX TEMP:  72;

STORM LAKE *   MOSUNNY   70  37  30 S21       29.53S
$$

IAZ055>058-069>071-079>083-090>094-250100-
   SOUTHWEST IOWA

CITY           SKY/WX    TMP DP  RH WIND       PRES   REMARKS
ATLANTIC *     PTSUNNY   70  39  32 S17G26    29.55S
AUDUBON *      SUNNY     72  34  25 S18       29.57S
CLARINDA *     MOSUNNY   72  41  33 S18       29.58F
COUNCIL BLFS * CLOUDY    70  43  37 S16       29.53S
CRESTON *      SUNNY     70  32  24 S18G30    29.60R
HARLAN  *      CLOUDY    72  39  30 S16G31    29.57S
LAMONI         MOSUNNY   72  30  21 S18G28    29.59S
6HR MIN TEMP:  70; 6HR MAX TEMP:  75;

RED OAK *      CLOUDY    72  41  33 S21G30    29.55S
SHENANDOAH *   PTSUNNY   72  41  33 S21G28    29.55S
$$

IAZ047>049-059>061-072>074-084-250100-
   CENTRAL IOWA

CITY           SKY/WX    TMP DP  RH WIND       PRES   REMARKS
AMES           CLOUDY    71  32  23 S16G23    29.58F
6HR MIN TEMP:  69; 6HR MAX TEMP:  74; 6HR PCP: TRACE;

ANKENY *       MOSUNNY   72  30  21 MISG      29.59F
BOONE *        CLOUDY    73  27  17 S15G24    29.57S
CHARITON *     CLOUDY    72  30  21 S16G23    29.60F
DES MOINES     PTSUNNY   73  30  20 S16       29.59F
6HR MIN TEMP:  70; 6HR MAX TEMP:  76; 6HR PCP: TRACE;

GRINNELL*      CLOUDY    71  26  19 SE16      29.63S
KNOXVILLE *    CLOUDY    72  30  21 S9G15     29.59F
MARSHALLTOWN   PTSUNNY   70  28  21 S14       29.59F
6HR MIN TEMP:  70; 6HR MAX TEMP:  74;

NEWTON *       MOSUNNY   72  27  18 S18       29.59F
PELLA *        CLOUDY    72  25  17 SE13      29.61F
PERRY *          N/A     72  24  16 S25       29.57S
$$

IAZ004>006-015-016-023>025-035-036-250100-
   NORTH CENTRAL IOWA

CITY           SKY/WX    TMP DP  RH WIND       PRES   REMARKS
ALGONA *       CLOUDY    70  30  23 S18G25    29.55S
CLARION *      MOSUNNY   72  28  20 S22G31    29.57S
ESTHERVILLE    CLOUDY    67  35  30 S14       29.53F
6HR MIN TEMP:  63; 6HR MAX TEMP:  69;

FORT DODGE *   MOSUNNY   72  30  21 S21G30    29.57S
MASON CITY     CLOUDY    68  30  24 S16       29.59F
6HR MIN TEMP:  66; 6HR MAX TEMP:  72;

FOREST CITY *    N/A     66  30  26 S17       29.57F
WEBSTER CITY * CLOUDY    72  27  18 S23G30    29.55S
IOWA FALLS *     N/A     72  30  20 S15G25    29.60F
$$

IAZ007>011-017>019-026>030-037>042-050>054-066-250100-
   NORTHEAST IOWA

CITY           SKY/WX    TMP DP  RH WIND       PRES   REMARKS
CEDAR RAPIDS   PTCLDY    71  29  21 SE16      29.63F
6HR MIN TEMP:  71; 6HR MAX TEMP:  76;

CHARLES CITY * PTSUNNY   70  27  19 S10G17    29.62F
CLINTON *      CLEAR     72  29  20 S13       29.70
DECORAH *      CLOUDY    68  28  22 SE10G17   29.63F
DUBUQUE        PTCLDY    69  27  20 S16       29.70S
6HR MIN TEMP:  68; 6HR MAX TEMP:  73;

MONTICELLO *   MOCLDY    72  27  18 SE13      29.67F
OELWEIN *      CLOUDY    70  30  23 S16       29.64F
WATERLOO       CLOUDY    70  25  18 S12G22    29.61F
6HR MIN TEMP:  68; 6HR MAX TEMP:  75;

$$

IAZ064-065-067-068-078-250100-
   EAST CENTRAL IOWA

CITY           SKY/WX    TMP DP  RH WIND       PRES   REMARKS
DAVENPORT      CLEAR     73  23  15 S14       29.69F
6HR MIN TEMP:  73; 6HR MAX TEMP:  78;

IOWA CITY      PTCLDY    72  28  19 SE16      29.67F
6HR MIN TEMP:  72; 6HR MAX TEMP:  76;

MT. PLEASANT * CLOUDY    71  30  22 S7        29.68R
MUSCATINE *    CLEAR     73  27  17 S10G17    29.68S
QUAD CITIES    CLEAR     73  27  18 S10       29.68S
6HR MIN TEMP:  73; 6HR MAX TEMP:  77;

$$

IAZ062-063-075>077-085>089-095>099-250100-
   SOUTHEAST IOWA

CITY           SKY/WX    TMP DP  RH WIND       PRES   REMARKS
BURLINGTON     CLEAR     70  32  24 S13       29.67F
6HR MIN TEMP:  70; 6HR MAX TEMP:  76;

FAIRFIELD *    PTCLDY    70  28  21 SE14      29.64F
FORT MADISON * CLEAR     73  30  20 SE10G16   29.68S
KEOKUK *       CLEAR     72  30  21 SE10      29.66F
OSKALOOSA *      N/A     72  26  18 S16       29.63S
CENTERVILLE *    N/A     70  32  24 SE10      29.63F
OTTUMWA        CLOUDY    72  27  18 S14       29.63S
6HR MIN TEMP:  72; 6HR MAX TEMP:  77;

WASHINGTON *   CLOUDY    72  27  18 S13       29.66F
$$

ABBREVIATIONS USED IN REMARKS
   TC - TEMPERATURES IN CELSIUS
  WCI - WIND CHILL INDEX
   HX - HEAT INDEX
  VSB - VISIBILITY
$$




USA.gov is the U.S. government's official web portal to all federal, state and local government web resources and services.